Flag for Germany Weather past 2 weeks in Calw, Baden-Württemberg, Germany

Now
53 °F

Overcast.


Feels Like: 53 °F
Forecast: 36 / 41 °F
Wind: 1 mph from Southeast

Location: Stuttgart-Echterdingen

Current Time: Oct 21, 2014 at 6:41:58 AM

Latest Report: Oct 21, 2014 at 6:00 AM


Visibility: 38 mi

Pressure: 29.98 "Hg

Humidity: 89%

Dew point: 49 °F

Location of CalwLocation

Historic Weather in Calw — Graph

°F

Calw temperature yesterday

Maximum temperature yesterday: 67 °F (at 2:00 PM)
Minimum temperature yesterday: 57 °F (at 7:00 AM)
Average temperature yesterday: 61 °F

Past Weeks' High & Low Weather Summary

 TemperatureHumidityPressure
High78 °F (Oct 9, 3:00 PM)99% (Oct 18, 2:00 AM)30.22 "Hg (Oct 18, 2:00 AM)
Low44 °F (Oct 18, 8:00 AM)34% (Oct 9, 4:00 PM)29.74 "Hg (Oct 15, 3:00 PM)
Average58 °F84%29.93 "Hg
* Reported Oct 6 4:00 AM — Oct 21 4:00 AM, Calw, Weather by CustomWeather, © 2014

Note: Actual official high and low records may vary slightly from our data, if they occured in-between our weather recording intervals... More about our weather records

Advertising

Calw weather history for previous 24 hours

 ConditionsComfort  
Time TempWeatherWind HumidityBarometerVisibility
4:00 AM
Oct 21
53 °FPassing clouds.1 mph87%30.01 "Hg31 mi
3:00 AM54 °FPassing clouds.5 mph83%30.03 "Hg37 mi
2:00 AM57 °FOvercast.5 mph83%30.02 "Hg28 mi
1:00 AM57 °FOvercast.3 mph86%30.01 "Hg28 mi
12:00 AM57 °FLight rain. Low clouds.2 mph90%30.01 "Hg12 mi
11:00 PM
Oct 20
58 °FLight rain. Overcast.3 mph85%30.03 "Hg16 mi
10:00 PM60 °FLight rain. Overcast.3 mph85%30.03 "Hg16 mi
9:00 PM60 °FOvercast.1 mph87%30.03 "Hg22 mi
8:00 PM61 °FLight rain. Overcast.2 mph82%30.03 "Hg19 mi
7:00 PM62 °FOvercast.2 mph80%30.03 "Hg19 mi
6:00 PM63 °FOvercast.5 mph78%30.04 "Hg22 mi
4:00 PM65 °FOvercast.2 mph81%30.05 "Hg22 mi
3:00 PM64 °FOvercast.3 mph84%30.07 "Hg25 mi
2:00 PM67 °FOvercast.6 mph68%30.07 "Hg31 mi
1:00 PM67 °FOvercast.3 mph72%30.08 "Hg34 mi
12:00 PM65 °FMild.3 mph75%30.09 "HgN/A
10:00 AM63 °FPartly sunny.2 mph81%30.11 "Hg31 mi
9:00 AM60 °FOvercast.2 mph89%30.12 "Hg37 mi
8:00 AM58 °FOvercast.2 mph88%30.12 "Hg31 mi
7:00 AM57 °FOvercast.2 mph88%30.13 "Hg31 mi
Weather by CustomWeather, © 2014

See weather overviewHow to use our weather pages